• In Uzbekistan
  • List of Countries
  • For 7 days
  • Water Temperature
  • Satellite Maps
  • Weather Map
  • Weather Widgets
  • user-avatar
    Login

    Hourly Weather Banswara

    Today, 18 October, Thursday

    Time Temperature Precipitation Wind Pressure Humidity
    00:00 +28°C° 0 mm 1 mps 737 mmHg 40%
    01:00 +27°C° 0 mm 1 mps 737 mmHg 42%
    02:00 +27°C° 0 mm 1 mps 737 mmHg 43%
    03:00 +27°C° 0 mm 1 mps 737 mmHg 44%
    04:00 +26°C° 0 mm 1 mps 737 mmHg 45%
    05:00 +26°C° 0 mm 1 mps 738 mmHg 46%
    06:00 +27°C° 0 mm 1 mps 738 mmHg 45%
    07:00 +28°C° 0 mm 1 mps 738 mmHg 43%
    08:00 +30°C° 0 mm 1 mps 739 mmHg 41%
    09:00 +31°C° 0 mm 2 mps 739 mmHg 38%
    10:00 +34°C° 0 mm 2 mps 739 mmHg 35%
    11:00 +35°C° 0 mm 3 mps 739 mmHg 34%
    12:00 +36°C° 0 mm 3 mps 738 mmHg 32%
    13:00 +36°C° 0 mm 3 mps 738 mmHg 30%
    14:00 +37°C° 0 mm 3 mps 737 mmHg 28%
    15:00 +36°C° 0 mm 2 mps 737 mmHg 30%
    16:00 +35°C° 0 mm 2 mps 737 mmHg 32%
    17:00 +34°C° 0 mm 1 mps 737 mmHg 34%
    18:00 +33°C° 0 mm 1 mps 737 mmHg 35%
    19:00 +31°C° 0 mm 1 mps 737 mmHg 36%
    20:00 +30°C° 0 mm 1 mps 738 mmHg 37%
    21:00 +30°C° 0 mm 1 mps 738 mmHg 38%
    22:00 +29°C° 0 mm 1 mps 738 mmHg 39%
    23:00 +29°C° 0 mm 1 mps 738 mmHg 40%

    Tomorrow, 19 October, Friday

    Time Temperature Precipitation Wind Pressure Humidity
    00:00 +28°C° 0 mm 1 mps 738 mmHg 42%
    01:00 +28°C° 0 mm 1 mps 738 mmHg 43%
    02:00 +27°C° 0 mm 1 mps 737 mmHg 45%
    03:00 +27°C° 0 mm 1 mps 738 mmHg 46%
    04:00 +27°C° 0 mm 1 mps 738 mmHg 46%
    05:00 +24°C° 0 mm 0 mps 738 mmHg 47%
    06:00 +26°C° 0 mm 0 mps 738 mmHg 45%
    07:00 +27°C° 0 mm 0 mps 739 mmHg 43%
    08:00 +28°C° 0 mm 0 mps 739 mmHg 40%
    09:00 +32°C° 0 mm 1 mps 740 mmHg 37%
    10:00 +33°C° 0 mm 1 mps 740 mmHg 33%
    11:00 +35°C° 0 mm 1 mps 740 mmHg 30%
    12:00 +36°C° 0 mm 2 mps 739 mmHg 28%
    13:00 +37°C° 0 mm 2 mps 738 mmHg 26%
    14:00 +37°C° 0 mm 2 mps 738 mmHg 24%
    15:00 +37°C° 0 mm 2 mps 738 mmHg 26%
    16:00 +36°C° 0 mm 2 mps 737 mmHg 28%
    17:00 +35°C° 0 mm 2 mps 737 mmHg 30%
    18:00 +33°C° 0 mm 1 mps 738 mmHg 31%
    19:00 +32°C° 0 mm 1 mps 738 mmHg 32%
    20:00 +31°C° 0 mm 1 mps 739 mmHg 33%
    21:00 +30°C° 0 mm 1 mps 739 mmHg 33%
    22:00 +30°C° 0 mm 1 mps 739 mmHg 34%
    23:00 +30°C° 0 mm 1 mps 739 mmHg 34%

    Day after tomorrow, 20 October, Saturday

    Time Temperature Precipitation Wind Pressure Humidity
    00:00 +29°C° 0 mm 1 mps 739 mmHg 35%
    01:00 +29°C° 0 mm 1 mps 739 mmHg 36%
    02:00 +28°C° 0 mm 1 mps 738 mmHg 37%
    03:00 +28°C° 0 mm 1 mps 738 mmHg 38%
    04:00 +27°C° 0 mm 1 mps 738 mmHg 38%
    05:00 +27°C° 0 mm 1 mps 739 mmHg 39%
    06:00 +28°C° 0 mm 1 mps 739 mmHg 38%
    07:00 +29°C° 0 mm 2 mps 740 mmHg 37%
    08:00 +30°C° 0 mm 2 mps 741 mmHg 37%
    09:00 +32°C° 0 mm 1 mps 741 mmHg 33%
    10:00 +34°C° 0 mm 1 mps 741 mmHg 29%
    11:00 +36°C° 0 mm 1 mps 741 mmHg 26%
    12:00 +36°C° 0 mm 1 mps 740 mmHg 24%
    13:00 +37°C° 0 mm 1 mps 739 mmHg 22%
    14:00 +37°C° 0 mm 1 mps 739 mmHg 21%
    15:00 +36°C° 0 mm 1 mps 738 mmHg 23%
    16:00 +37°C° 0 mm 2 mps 738 mmHg 26%
    17:00 +36°C° 0 mm 2 mps 738 mmHg 28%
    18:00 +35°C° 0 mm 2 mps 739 mmHg 28%
    19:00 +32°C° 0 mm 2 mps 739 mmHg 28%
    20:00 +31°C° 0 mm 2 mps 740 mmHg 29%
    21:00 +31°C° 0 mm 2 mps 740 mmHg 29%
    22:00 +30°C° 0 mm 1 mps 740 mmHg 30%
    23:00 +30°C° 0 mm 1 mps 740 mmHg 31%

    21 October, Sunday

    Time Temperature Precipitation Wind Pressure Humidity
    00:00 +30°C° 0 mm 1 mps 739 mmHg 32%
    01:00 +29°C° 0 mm 1 mps 739 mmHg 33%
    02:00 +29°C° 0 mm 1 mps 739 mmHg 34%
    03:00 +29°C° 0 mm 1 mps 739 mmHg 35%
    04:00 +28°C° 0 mm 1 mps 739 mmHg 36%
    05:00 +28°C° 0 mm 1 mps 739 mmHg 36%
    06:00 +29°C° 0 mm 1 mps 740 mmHg 35%
    07:00 +30°C° 0 mm 1 mps 741 mmHg 34%
    08:00 +31°C° 0 mm 1 mps 741 mmHg 33%
    09:00 +32°C° 0 mm 1 mps 741 mmHg 30%
    10:00 +34°C° 0 mm 1 mps 741 mmHg 27%
    11:00 +36°C° 0 mm 1 mps 741 mmHg 23%
    12:00 +36°C° 0 mm 1 mps 740 mmHg 22%
    13:00 +37°C° 0 mm 1 mps 740 mmHg 21%
    14:00 +37°C° 0 mm 1 mps 739 mmHg 20%
    15:00 +37°C° 0 mm 2 mps 739 mmHg 23%
    16:00 +36°C° 0 mm 2 mps 739 mmHg 25%
    17:00 +35°C° 0 mm 2 mps 738 mmHg 27%
    18:00 +34°C° 0 mm 2 mps 739 mmHg 26%
    19:00 +32°C° 0 mm 2 mps 739 mmHg 26%
    20:00 +31°C° 0 mm 2 mps 740 mmHg 26%
    21:00 +30°C° 0 mm 2 mps 740 mmHg 26%
    22:00 +30°C° 0 mm 2 mps 740 mmHg 25%
    23:00 +29°C° 0 mm 2 mps 740 mmHg 25%

    22 October, Monday

    Time Temperature Precipitation Wind Pressure Humidity
    00:00 +28°C° 0 mm 2 mps 739 mmHg 26%
    01:00 +28°C° 0 mm 2 mps 739 mmHg 26%
    02:00 +27°C° 0 mm 2 mps 738 mmHg 26%
    03:00 +27°C° 0 mm 1 mps 739 mmHg 27%
    04:00 +27°C° 0 mm 1 mps 739 mmHg 27%
    05:00 +26°C° 0 mm 1 mps 739 mmHg 28%
    06:00 +28°C° 0 mm 1 mps 739 mmHg 27%
    07:00 +29°C° 0 mm 1 mps 740 mmHg 27%
    08:00 +30°C° 0 mm 1 mps 740 mmHg 27%
    09:00 +32°C° 0 mm 1 mps 740 mmHg 24%
    10:00 +34°C° 0 mm 1 mps 740 mmHg 21%
    11:00 +36°C° 0 mm 1 mps 740 mmHg 18%
    12:00 +37°C° 0 mm 1 mps 739 mmHg 17%
    13:00 +38°C° 0 mm 2 mps 739 mmHg 17%
    14:00 +38°C° 0 mm 2 mps 738 mmHg 16%
    15:00 +37°C° 0 mm 2 mps 738 mmHg 19%
    16:00 +36°C° 0 mm 2 mps 738 mmHg 22%
    17:00 +35°C° 0 mm 2 mps 738 mmHg 24%
    18:00 +34°C° 0 mm 2 mps 738 mmHg 24%
    19:00 +32°C° 0 mm 2 mps 738 mmHg 25%
    20:00 +31°C° 0 mm 1 mps 739 mmHg 25%
    21:00 +30°C° 0 mm 1 mps 739 mmHg 25%
    22:00 +30°C° 0 mm 1 mps 739 mmHg 26%
    23:00 +29°C° 0 mm 1 mps 739 mmHg 26%

    23 October, Tuesday

    Time Temperature Precipitation Wind Pressure Humidity
    00:00 +29°C° 0 mm 1 mps 738 mmHg 27%
    01:00 +28°C° 0 mm 1 mps 738 mmHg 28%
    02:00 +28°C° 0 mm 1 mps 738 mmHg 29%
    03:00 +27°C° 0 mm 1 mps 738 mmHg 29%
    04:00 +27°C° 0 mm 1 mps 738 mmHg 30%
    05:00 +26°C° 0 mm 1 mps 738 mmHg 30%
    06:00 +28°C° 0 mm 1 mps 739 mmHg 30%
    07:00 +29°C° 0 mm 1 mps 739 mmHg 29%
    08:00 +30°C° 0 mm 1 mps 740 mmHg 29%
    09:00 +32°C° 0 mm 1 mps 740 mmHg 26%
    10:00 +35°C° 0 mm 2 mps 740 mmHg 24%
    11:00 +36°C° 0 mm 2 mps 740 mmHg 22%
    12:00 +37°C° 0 mm 2 mps 739 mmHg 21%
    13:00 +38°C° 0 mm 3 mps 738 mmHg 19%
    14:00 +38°C° 0 mm 3 mps 738 mmHg 18%
    15:00 +37°C° 0 mm 2 mps 738 mmHg 20%
    16:00 +36°C° 0 mm 2 mps 738 mmHg 23%
    17:00 +35°C° 0 mm 2 mps 738 mmHg 25%
    18:00 +33°C° 0 mm 1 mps 738 mmHg 26%
    19:00 +31°C° 0 mm 1 mps 738 mmHg 26%
    20:00 +30°C° 0 mm 1 mps 739 mmHg 27%
    21:00 +30°C° 0 mm 1 mps 739 mmHg 28%
    22:00 +29°C° 0 mm 1 mps 739 mmHg 28%
    23:00 +29°C° 0 mm 1 mps 739 mmHg 29%
    Show more